This demonstration page uses our WeatherBlox Daily Observations layout. Learn more.

Left ArrowRight Arrow

36.17497, -115.13722

Hourly Observations for October 9, 2016

Temp ( °F °C ) Dew Point ( °F °C ) Humidity (%) Winds ( mph kmh ) Pressure ( in mb ) Visibility ( mi km ) Precip ( " mm )
12:53 am 00:53 Clear 67 19.4 28 -2.2 23 23 NNW 6 9 30 1016 10 16.0934 0 0
1:53 am 01:53 Clear 66 18.9 28 -2.2 24 24 NNW 7 11 30.01 1016 10 16.0934 0 0
2:53 am 02:53 Clear 66 18.9 30 -1.1 26 26 NW 6 9 30.01 1016 10 16.0934 0 0
3:53 am 03:53 Clear 66 18.9 30 -1.1 26 26 Calm 30.01 1016 10 16.0934 0 0
4:53 am 04:53 Clear 63 17.2 32 0 31 31 NW 6 9 30.03 1017 10 16.0934 0 0
5:53 am 05:53 Clear 63 17.2 36 2.2 37 37 NNW 5 7 30.04 1017 10 16.0934 0 0
6:53 am 06:53 Sunny 62 16.7 36 2.2 38 38 WNW 3 6 30.06 1018 10 16.0934 0 0
7:53 am 07:53 Sunny 67 19.4 37 2.8 33 33 NW 3 6 30.08 1019 10 16.0934 0 0
8:53 am 08:53 Sunny 72 22.2 36 2.2 27 27 Calm 30.09 1019 10 16.0934 0 0
9:53 am 09:53 Sunny 75 23.9 35 1.7 23 23 VRB 3 6 30.09 1019 10 16.0934 0 0
10:53 am 10:53 Sunny 79 26.1 35 1.7 20 20 SE 3 6 30.08 1019 10 16.0934 0 0
11:53 am 11:53 Sunny 81 27.2 37 2.8 21 21 SSE 8 13 30.07 1018 10 16.0934 0 0
12:53 pm 12:53 Sunny 84 28.9 39 3.9 20 20 S 7 11 30.04 1017 10 16.0934 0 0
1:53 pm 13:53 Sunny 86 30 40 4.4 20 20 SE 7 11 30.01 1016 10 16.0934 0 0
2:53 pm 14:53 Sunny 87 30.6 40 4.4 19 19 SSE 12 19 29.98 1015 10 16.0934 0 0
3:53 pm 15:53 Sunny 88 31.1 39 3.9 18 18 SSE 9 15 29.96 1015 10 16.0934 0 0
4:53 pm 16:53 Sunny 88 31.1 39 3.9 18 18 SSE 10 17 29.95 1014 10 16.0934 0 0
5:53 pm 17:53 Sunny 86 30 39 3.9 19 19 SE 8 13 29.95 1014 10 16.0934 0 0
6:53 pm 18:53 Clear 83 28.3 38 3.3 20 20 E 6 9 29.96 1015 10 16.0934 0 0
7:53 pm 19:53 Clear 81 27.2 40 4.4 23 23 NW 5 7 29.97 1015 10 16.0934 0 0
8:53 pm 20:53 Clear 77 25 40 4.4 26 26 NW 5 7 29.97 1015 10 16.0934 0 0
9:53 pm 21:53 Clear 75 23.9 41 5 29 29 NW 7 11 29.97 1015 10 16.0934 0 0
10:53 pm 22:53 Clear 73 22.8 40 4.4 30 30 NNW 6 9 29.97 1015 10 16.0934 0 0
11:53 pm 23:53 Clear 73 22.8 42 5.6 33 33 W 3 6 29.98 1015 10 16.0934 0 0

Powered by AerisWeather